TimeAEST,TemperatureF,Dew PointF,Humidity,Sea Level PressureIn,VisibilityMPH,Wind Direction,Wind SpeedMPH,Gust SpeedMPH,PrecipitationIn,Events,Conditions,WindDirDegrees,DateUTC
12:00 AM,46,45,96,30.19,11,SSW,4.6,,,Rain,Heavy Rain Showers,210,2013-06-15 14:00:00
12:00 AM,46.4,44.6,93,30.18,6.2,SSW,4.6,-,N/A,Rain,Light Rain Showers,210,2013-06-15 14:00:00
12:30 AM,46.4,44.6,93,30.15,6.2,SW,4.6,-,N/A,Rain,Light Rain Showers,230,2013-06-15 14:30:00
1:00 AM,46,45,96,30.18,,SW,5.8,,,,,230,2013-06-15 15:00:00
1:00 AM,46.4,44.6,93,30.15,6.2,SW,5.8,-,N/A,Rain,Light Rain Showers,230,2013-06-15 15:00:00
1:30 AM,46.4,44.6,93,30.15,6.2,SW,5.8,-,N/A,,Mostly Cloudy,230,2013-06-15 15:30:00
2:00 AM,46.4,44.6,93,30.15,6.2,SSW,5.8,-,N/A,,Mostly Cloudy,210,2013-06-15 16:00:00
2:30 AM,46.4,44.6,93,30.15,6.2,SSW,4.6,-,N/A,,Mostly Cloudy,210,2013-06-15 16:30:00
3:00 AM,45,44,97,30.18,11,SW,5.8,,,,Haze,220,2013-06-15 17:00:00
3:00 AM,44.6,44.6,100,30.15,6.2,SSW,5.8,-,N/A,,Scattered Clouds,210,2013-06-15 17:00:00
3:30 AM,46.4,44.6,93,30.15,6.2,SW,5.8,-,N/A,,Mostly Cloudy,230,2013-06-15 17:30:00
4:00 AM,46,45,96,30.17,,WSW,5.8,,,,,240,2013-06-15 18:00:00
4:00 AM,46.4,44.6,93,30.15,6.2,WSW,5.8,-,N/A,,Mostly Cloudy,240,2013-06-15 18:00:00
4:30 AM,46.4,44.6,93,30.15,6.2,SW,5.8,-,N/A,,Mostly Cloudy,220,2013-06-15 18:30:00
5:00 AM,46.4,46.4,100,30.15,6.2,WSW,5.8,-,N/A,,Mostly Cloudy,240,2013-06-15 19:00:00
5:30 AM,46.4,46.4,100,30.15,6.2,SSW,5.8,-,N/A,Rain,Light Rain Showers,210,2013-06-15 19:30:00
6:00 AM,46,45,96,30.16,12,SW,5.8,,,,Mostly Cloudy,220,2013-06-15 20:00:00
6:00 AM,46.4,44.6,93,30.15,6.2,SW,5.8,-,N/A,,Mostly Cloudy,220,2013-06-15 20:00:00
6:30 AM,46.4,44.6,93,30.15,6.2,SW,6.9,-,N/A,,Mostly Cloudy,230,2013-06-15 20:30:00
7:00 AM,46,45,94,30.17,,SW,5.8,,,,,230,2013-06-15 21:00:00
7:00 AM,46.4,44.6,93,30.15,6.2,SW,5.8,-,N/A,,Mostly Cloudy,230,2013-06-15 21:00:00
7:30 AM,44.6,42.8,93,30.15,6.2,WSW,4.6,-,N/A,,Partly Cloudy,240,2013-06-15 21:30:00
8:00 AM,42.8,42.8,100,30.15,6.2,WSW,5.8,-,N/A,,Partly Cloudy,250,2013-06-15 22:00:00
8:30 AM,44.6,44.6,100,30.15,6.2,SW,5.8,-,N/A,,Partly Cloudy,230,2013-06-15 22:30:00
9:00 AM,47,46,94,30.18,16,SW,6.9,,,,Haze,220,2013-06-15 23:00:00
9:00 AM,48.2,46.4,93,30.15,6.2,SW,6.9,-,N/A,,Scattered Clouds,220,2013-06-15 23:00:00
9:30 AM,50.0,46.4,87,30.15,6.2,SSW,6.9,-,N/A,,Mostly Cloudy,200,2013-06-15 23:30:00
10:00 AM,50,46,79,30.18,,South,8.1,,,,,190,2013-06-16 00:00:00
10:00 AM,50.0,46.4,87,30.15,6.2,South,8.1,-,N/A,,Scattered Clouds,190,2013-06-16 00:00:00
10:30 AM,51.8,44.6,76,30.15,6.2,South,8.1,-,N/A,,Partly Cloudy,180,2013-06-16 00:30:00
11:00 AM,51.8,42.8,71,30.15,6.2,South,9.2,-,N/A,,Partly Cloudy,180,2013-06-16 01:00:00
11:30 AM,53.6,42.8,67,30.12,6.2,SSE,12.7,-,N/A,,Partly Cloudy,150,2013-06-16 01:30:00
12:00 PM,54,41,50,30.14,19,SSE,15.0,,,,Partly Cloudy,160,2013-06-16 02:00:00
12:00 PM,53.6,41.0,62,30.12,6.2,SSE,15.0,-,N/A,,Scattered Clouds,160,2013-06-16 02:00:00
12:30 PM,53.6,41.0,62,30.12,6.2,SSE,13.8,-,N/A,,Scattered Clouds,160,2013-06-16 02:30:00
1:00 PM,54,40,47,30.12,,South,12.7,,,,,170,2013-06-16 03:00:00
1:00 PM,53.6,39.2,58,30.09,6.2,South,12.7,-,N/A,,Scattered Clouds,170,2013-06-16 03:00:00
1:30 PM,55.4,41.0,58,30.09,6.2,South,15.0,-,N/A,,Scattered Clouds,170,2013-06-16 03:30:00
2:00 PM,53.6,41.0,62,30.06,6.2,South,17.3,-,N/A,,Mostly Cloudy,170,2013-06-16 04:00:00
2:30 PM,51.8,41.0,67,30.06,6.2,South,12.7,-,N/A,,Mostly Cloudy,170,2013-06-16 04:30:00
3:00 PM,53,42,58,30.09,19,South,10.4,,,,Mostly Cloudy,170,2013-06-16 05:00:00
3:00 PM,51.8,42.8,71,30.06,6.2,South,10.4,-,N/A,,Mostly Cloudy,170,2013-06-16 05:00:00
3:30 PM,50.0,44.6,82,30.06,6.2,SSE,13.8,-,N/A,,Mostly Cloudy,160,2013-06-16 05:30:00
4:00 PM,51,44,71,30.09,,South,8.1,,,,,190,2013-06-16 06:00:00
4:00 PM,51.8,44.6,76,30.06,6.2,South,8.1,-,N/A,,Mostly Cloudy,190,2013-06-16 06:00:00
4:30 PM,50.0,42.8,76,30.06,6.2,South,9.2,-,N/A,,Mostly Cloudy,180,2013-06-16 06:30:00
5:00 PM,48.2,42.8,82,30.06,6.2,South,6.9,-,N/A,,Scattered Clouds,190,2013-06-16 07:00:00
5:30 PM,48.2,42.8,82,30.06,6.2,South,6.9,-,N/A,,Scattered Clouds,180,2013-06-16 07:30:00
6:00 PM,47,43,81,30.09,19,South,5.8,,,,Partly Cloudy,180,2013-06-16 08:00:00
6:00 PM,48.2,42.8,82,30.06,6.2,South,5.8,-,N/A,,Mostly Cloudy,180,2013-06-16 08:00:00
6:30 PM,48.2,42.8,82,30.06,6.2,South,6.9,-,N/A,,Mostly Cloudy,180,2013-06-16 08:30:00
7:00 PM,49,43,74,30.09,,South,9.2,,,,,180,2013-06-16 09:00:00
7:00 PM,50.0,42.8,76,30.06,6.2,South,9.2,-,N/A,,Mostly Cloudy,180,2013-06-16 09:00:00
7:30 PM,48.2,42.8,82,30.06,6.2,South,5.8,-,N/A,,Mostly Cloudy,180,2013-06-16 09:30:00
8:00 PM,48.2,44.6,87,30.06,6.2,South,8.1,-,N/A,,Mostly Cloudy,170,2013-06-16 10:00:00
8:30 PM,46.4,44.6,93,30.06,6.2,South,5.8,-,N/A,Rain,Light Rain Showers,170,2013-06-16 10:30:00
9:00 PM,47,45,90,30.08,9,SSE,10.4,,,Rain,Light Rain Showers,150,2013-06-16 11:00:00
9:00 PM,48.2,44.6,87,30.06,6.2,SSE,10.4,-,N/A,Rain,Light Rain Showers,150,2013-06-16 11:00:00
9:30 PM,46.4,44.6,93,30.06,6.2,South,5.8,-,N/A,,Scattered Clouds,170,2013-06-16 11:30:00
10:00 PM,45,43,91,30.08,,SSW,4.6,,,,,210,2013-06-16 12:00:00
10:00 PM,44.6,42.8,93,30.06,6.2,SSW,4.6,-,N/A,,Mostly Cloudy,210,2013-06-16 12:00:00
10:30 PM,44.6,42.8,93,30.04,6.2,SW,4.6,-,N/A,,Scattered Clouds,220,2013-06-16 12:30:00
11:00 PM,44.6,42.8,93,30.04,6.2,SW,4.6,-,N/A,,Scattered Clouds,220,2013-06-16 13:00:00
11:30 PM,44.6,42.8,93,30.04,6.2,West,5.8,-,N/A,,Mostly Cloudy,280,2013-06-16 13:30:00